User: anonymous   Login
Location: Edmonton
(53.5500°N, 113.5000°W)
Time: 15:13:56
(UTC-06:00)
Language:

CZ-4C R/B - Orbit

View from above orbital plane
View from above orbital plane
View from above satellite
View from above satellite

Ground track
Ground track

The orbit data is extracted from the following two-line orbital elements,

1 36416U 10009D   18112.65683385 -.00000080 +00000-0 +11390-4 0  9994
2 36416 063.4339 154.0151 0417590 355.7103 004.0396 13.69531804406593
Epoch (UTC): 22 April 2018 15:45:50
Eccentricity: 0.0417590
inclination: 63.4339°
perigee height: 693 km
apogee height: 1309 km
right ascension of ascending node: 154.0151°
argument of perigee: 355.7103°
revolutions per day: 13.69531804
mean anomaly at epoch: 4.0396°
orbit number at epoch: 40659

The dashed part of the orbit path shows where the satellite is in the earth's shadow,  

DLR